CYGFM01

Last updated on Sat Jun 14 2025 00:02:21 GMT+0000 (Coordinated Universal Time)

1 41887U 16078D 25164.26741033 .00022429 00000+0 52514-3 0 9992 2 41887 34.9428 155.1709 0010505 265.1161 94.8359 15.41116286471488
UTC large
Height (km)
Speed (km/s)
/
Latitude / Longitude
Inclination (degrees)
Orbital Period (minutes)
Azimuth
Elevation
Range (km)
Doppler Factor

Next 0 passes for location: London (51.5072 / 0.1276)

Sorry there are no passes over London.